Regional Weather Roundup
Issued by NWS

Home | Current Version | Previous Version | Text Only | Print | Product List | Glossary Off
Versions: 1 2 3 4 5 6 7 8 9 10 11 12 13 14 15 16 17 18 19 20 21 22 23 24 25 26 27 28 29 30 31 32 33 34 35 36 37 38 39 40 41 42 43 44 45 46 47 48 49 50

000
ASUS45 KTFX 281904
RWRMT
MONTANA HOURLY WEATHER ROUNDUP
NATIONAL WEATHER SERVICE GREAT FALLS MT
1204 PM MST SUN DEC 28 2014

NOTE: "FAIR" INDICATES FEW OR NO CLOUDS BELOW 12000 FEET WITH NO
SIGNIFICANT WEATHER AND/OR OBSTRUCTIONS TO VISIBILITY.

* THESE STATIONS ARE NOT UNDER NWS QUALITY CONTROL. THEY DO NOT
   REPORT WEATHER SUCH AS PRECIPITATION OR FOG.

MTZ001>007-043-282000-
WEST OF THE DIVIDE
CITY           SKY/WX    TMP DP  RH WIND       PRES   REMARKS
KALISPELL      CLOUDY    27  16  63 N20G28    30.03R WCI  13
MISSOULA       SNOW      28  27  96 CALM      29.99S VSB 1/2
BUTTE          CLOUDY    23  16  74 CALM      29.89S
MULLAN PASS    HVY SNOW  25  19  78 CALM      29.86S VSB M1/4
* ESSEX        N/A       21  12  68 N/A        N/A
* LINCOLN      N/A       19  13  77 NE16G22    N/A   WCI   4
* LOOKOUT PASS N/A       25  24  96 VRB6       N/A   WCI  18
* POLSON       N/A       29  25  85 VRB1       N/A
* RONAN APT    CLOUDY    30  28  92 N/A        N/A
* SEELEY LAKE  N/A       26  24  92 NW2        N/A
* THOMP F APT  PTSUNNY   19  14  81 E1         N/A
$$

MTZ008-052>055-282000-
SOUTHWEST MONTANA
CITY           SKY/WX    TMP DP  RH WIND       PRES   REMARKS
BOZEMAN        LGT SNOW  27  25  92 CALM      29.92S VSB 1 3/4
DILLON         CLOUDY    25  16  69 SW12      29.89S WCI  14
* W YELLOWSTON PTSUNNY   19  13  77 SW2G8      N/A
* THREE FORKS  CLOUDY    30  30 100 N/A        N/A
* BOULDER HILL N/A       15  11  84 N19G25     N/A   WCI  -2
* MONIDA PASS  N/A       13  12  96 SE7        N/A   WCI   3
* RAYNOLDS PAS N/A       15  -1  49 S10        N/A   WCI   3
* WHITEHALL    N/A       29  15  56 SW7        N/A   WCI  22
* WISE RIVER   N/A       24  14  66 W4         N/A
$$

MTZ009>010-012-014-046-048-049-054-282000-
EAST SLOPES AND CENTRAL MONTANA
CITY           SKY/WX    TMP DP  RH WIND       PRES   REMARKS
CUT BANK       LGT SNOW  12   9  88 N25       30.13R VSB 3/4  WCI  -8
GREAT FALLS    HVY SNOW  12  10  92 N14       30.09R VSB M1/4 WCI  -4
HELENA         LGT SNOW  21  12  68 NW10      30.03R VSB 3    WCI  10
MALMSTROM AFB  LGT SNOW  12  10  92 NW12      30.12R VSB 1    WCI  -2
* DEARBORN     N/A       18  15  88 N/A        N/A
* EAST GLACIER N/A       10   5  80 E14        N/A   WCI  -6
* MONARCH      N/A       10   6  84 NW19       N/A   WCI  -8
* PENDROY      N/A       11  10  96 N25G32     N/A   WCI  -9
* ROGERS PASS  N/A       13   9  84 SE6G12     N/A   WCI   4
* SWEET GRASS  N/A       11   9  92 N/A        N/A
$$

MTZ011-013-016-021-035-040-045-047-050-051-282000-
NORTH CENTRAL MONTANA
CITY           SKY/WX    TMP DP  RH WIND       PRES   REMARKS
HAVRE          CLOUDY    19  14  81 NE10      30.15R WCI   8
LEWISTOWN      LGT SNOW  21  18  88 N9        29.94R VSB 1 1/2 WCI  11
* N BAR RANCH  CLOUDY    21  16  81 NW6       29.93R WCI  13
* CHESTER      N/A       15   9  77 NE12G18    N/A   WCI   1
* DENTON       N/A       20  17  88 NW14       N/A   WCI   7
* GEYSER       N/A       19  16  88 W13G18     N/A   WCI   6
* JUDITH GAP   N/A       21  20  96 NW21G27    N/A   WCI   5
* LOMA         N/A       18  15  88 N26G35     N/A
$$

MTZ017>020-022>027-061-062-282000-
NORTHEAST MONTANA
CITY           SKY/WX    TMP DP  RH WIND       PRES   REMARKS
GLASGOW        CLOUDY    16   9  74 E17       30.12R
GLENDIVE       PTSUNNY   19  18  96 NE17      30.04S WCI   4
JORDAN         PTSUNNY   19  16  88 NE16      30.02R WCI   4
SIDNEY         CLOUDY    16   9  74 N13       30.15R WCI   2
WOLF POINT     CLOUDY    14   7  73 NE17      30.15R WCI  -2
* BEAVER HILL  N/A       20  16  84 E17G22     N/A   WCI   5
* CIRCLE       N/A       18  16  92 NE13G19    N/A   WCI   5
* LINDSAY DVD  N/A       18  17  96 NE13       N/A   WCI   5
* NAVAJO       N/A        5   1  83 NE10       N/A   WCI -10
* SACO         N/A       16  11  81 NE10       N/A   WCI   4
$$

MTZ028>042-056>058-282000-
SOUTHCENTRAL AND SOUTHEAST MONTANA
CITY           SKY/WX    TMP DP  RH WIND       PRES   REMARKS
BAKER          CLOUDY    23  18  81 E12       29.98R WCI  11
BILLINGS       SNOW      25  21  85 SW8       29.91S VSB 1/2  WCI  16
LIVINGSTON     CLOUDY    28  18  66 W17       29.86F WCI  16
MILES CITY     LGT SNOW  25  21  85 NE7       29.97S VSB 1/2  WCI  17
* LAUREL APT   CLOUDY    25  14  63 SW7        N/A   WCI  17
* ROUNDUP APT  CLOUDY    23  16  74 N7         N/A   WCI  15
* ALZADA       N/A       25  12  58 NE4        N/A
* HYSHAM       N/A       25  21  85 VRB5       N/A   WCI  19
* REED POINT   N/A       26  23  88 E4         N/A
* ROSCOE HILL  N/A       26  13  58 E4         N/A
$$

REGIONAL REPORTS...DAKOTAS
CITY           SKY/WX    TMP DP  RH WIND       PRES   REMARKS
WILLISTON      CLOUDY    10   1  67 NE9       30.18S WCI  -3
DICKINSON      LGT SNOW  18  12  77 E10       30.04R VSB 2 1/2 WCI   6
BISMARCK       CLOUDY    10   5  80 E14       30.18F WCI  -6
GRAND FORKS    SUNNY      0  -9  65 N9        30.34S WCI -15
FARGO          SUNNY      5  -4  66 N13       30.29S WCI -12
BUFFALO SD     PTSUNNY   25  16  69 NE9       29.89S WCI  16
RAPID CITY     CLOUDY    25  16  69 N6        29.94F WCI  18
$$

REGIONAL REPORTS...WYOMING/IDAHO/WASHINGTON
CITY           SKY/WX    TMP DP  RH WIND       PRES   REMARKS
GILLETTE       CLOUDY    25  14  63 CALM      29.85F
SHERIDAN       CLOUDY    21  10  62 CALM      29.87F
CODY           CLOUDY    16  10  77 NE5       29.84S WCI   8
YELLOWSTONE LA PTSUNNY   16  10  77 CALM      29.83F
SALMON         CLOUDY    21  18  88 N5        30.00S WCI  14
MULLAN PASS    HVY SNOW  25  19  78 CALM      29.86S VSB M1/4
SAND POINT     LGT SNOW  32  32 100 CALM      30.04S VSB 2 1/2
SPOKANE        FOG       27  27 100 W3        30.04S VSB M1/4

$$



USA.gov is the U.S. government's official web portal to all federal, state and local government web resources and services.